| time (UTC) | temp C | wind direction | speed KPH | gust KPH | rain 1hr cm | rain 24hr cm | rain mn cm | humidity % | barometer mb |
| 20260503005410 | 17 | 205 | 4.8 | 12.9 | 0.00 | 0.00 | 0.00 | 39 | 1009.4 |
| 20260503004910 | 17 | 189 | 3.2 | 11.3 | 0.00 | 0.00 | 0.00 | 39 | 1009.4 |
| 20260503004411 | 17 | 215 | 3.2 | 11.3 | 0.00 | 0.00 | 0.00 | 39 | 1009.4 |
| 20260503003911 | 17 | 225 | 1.6 | 6.4 | 0.00 | 0.00 | 0.00 | 39 | 1009.5 |
| 20260503003408 | 17 | 216 | 3.2 | 8.0 | 0.00 | 0.00 | 0.00 | 39 | 1009.5 |
| 20260503002908 | 17 | 200 | 3.2 | 9.7 | 0.00 | 0.00 | 0.00 | 40 | 1009.5 |
| 20260503002407 | 17 | 251 | 4.8 | 12.9 | 0.00 | 0.00 | 0.00 | 38 | 1009.6 |
| 20260503001908 | 17 | 277 | 4.8 | 12.9 | 0.00 | 0.00 | 0.00 | 37 | 1009.7 |
| 20260503001409 | 17 | 234 | 3.2 | 11.3 | 0.00 | 0.00 | 0.00 | 38 | 1009.7 |
| 20260503000909 | 17 | 216 | 3.2 | 11.3 | 0.00 | 0.00 | 0.00 | 38 | 1009.8 |
| 20260503000407 | 17 | 285 | 6.4 | 17.7 | 0.00 | 0.00 | 0.00 | 36 | 1009.8 |
| 20260502235907 | 18 | 248 | 4.8 | 17.7 | 0.00 | 0.00 | 0.00 | 35 | 1009.8 |
| 20260502235407 | 18 | 309 | 4.8 | 14.5 | 0.00 | 0.00 | 0.00 | 34 | 1009.8 |
| 20260502234905 | 18 | 288 | 4.8 | 14.5 | 0.00 | 0.00 | 0.00 | 34 | 1009.8 |
| 20260502234404 | 18 | 271 | 6.4 | 17.7 | 0.00 | 0.00 | 0.00 | 33 | 1009.7 |
| 20260502234133 | 18 | 255 | 6.4 | 17.7 | 0.00 | 0.00 | 0.00 | 33 | 1009.7 |
| 20260502233404 | 18 | 241 | 6.4 | 16.1 | 0.00 | 0.00 | 0.00 | 34 | 1009.7 |
| 20260502233350 | 18 | 260 | 6.4 | 16.1 | 0.00 | 0.00 | 0.00 | 34 | 1009.7 |
| 20260502232627 | 18 | 242 | 6.4 | 16.1 | 0.00 | 0.00 | 0.00 | 33 | 1009.7 |
| 20260502231902 | 18 | 205 | 6.4 | 17.7 | 0.00 | 0.00 | 0.00 | 33 | 1009.7 |
| 20260502231402 | 18 | 194 | 3.2 | 17.7 | 0.00 | 0.00 | 0.00 | 33 | 1009.7 |
| 20260502231122 | 18 | 210 | 3.2 | 11.3 | 0.00 | 0.00 | 0.00 | 34 | 1009.8 |
| 20260502230401 | 18 | 227 | 4.8 | 12.9 | 0.00 | 0.00 | 0.00 | 33 | 1009.9 |
| 20260502225900 | 18 | 211 | 4.8 | 12.9 | 0.00 | 0.00 | 0.00 | 33 | 1009.9 |
| 20260502225359 | 18 | 217 | 4.8 | 14.5 | 0.00 | 0.00 | 0.00 | 34 | 1009.9 |
| 20260502224851 | 18 | 219 | 4.8 | 14.5 | 0.00 | 0.00 | 0.00 | 33 | 1010.0 |
| 20260502224351 | 18 | 223 | 6.4 | 14.5 | 0.00 | 0.00 | 0.00 | 33 | 1010.0 |
| 20260502223851 | 18 | 201 | 6.4 | 11.3 | 0.00 | 0.00 | 0.00 | 33 | 1010.2 |
| 20260502223351 | 18 | 248 | 6.4 | 17.7 | 0.00 | 0.00 | 0.00 | 33 | 1010.3 |
| 20260502222850 | 18 | 267 | 6.4 | 17.7 | 0.00 | 0.00 | 0.00 | 32 | 1010.4 |
| 20260502222351 | 18 | 273 | 4.8 | 14.5 | 0.00 | 0.00 | 0.00 | 32 | 1010.4 |
| 20260502221850 | 18 | 242 | 4.8 | 14.5 | 0.00 | 0.00 | 0.00 | 31 | 1010.5 |
| 20260502221348 | 18 | 205 | 4.8 | 16.1 | 0.00 | 0.00 | 0.00 | 32 | 1010.5 |
| 20260502220849 | 18 | 276 | 6.4 | 16.1 | 0.00 | 0.00 | 0.00 | 30 | 1010.5 |
| 20260502220348 | 19 | 261 | 8.0 | 29.0 | 0.00 | 0.00 | 0.00 | 30 | 1010.6 |
| 20260502215848 | 19 | 250 | 11.3 | 29.0 | 0.00 | 0.00 | 0.00 | 30 | 1010.6 |
| 20260502215607 | 19 | 281 | 9.7 | 29.0 | 0.00 | 0.00 | 0.00 | 30 | 1010.8 |
| 20260502214848 | 19 | 198 | 8.0 | 20.9 | 0.00 | 0.00 | 0.00 | 31 | 1010.6 |
| 20260502214348 | 19 | 227 | 8.0 | 17.7 | 0.00 | 0.00 | 0.00 | 31 | 1010.8 |
| 20260502213848 | 20 | 238 | 8.0 | 22.5 | 0.00 | 0.00 | 0.00 | 30 | 1010.9 |
| 20260502213345 | 20 | 263 | 8.0 | 22.5 | 0.00 | 0.00 | 0.00 | 31 | 1010.9 |
| 20260502212840 | 19 | 220 | 8.0 | 24.1 | 0.00 | 0.00 | 0.00 | 32 | 1011.0 |
| 20260502212340 | 18 | 202 | 8.0 | 24.1 | 0.00 | 0.00 | 0.00 | 32 | 1011.1 |
| 20260502211840 | 19 | 211 | 8.0 | 17.7 | 0.00 | 0.00 | 0.00 | 30 | 1011.2 |
| 20260502211340 | 19 | 271 | 6.4 | 17.7 | 0.00 | 0.00 | 0.00 | 31 | 1011.3 |
| 20260502211104 | 19 | 213 | 6.4 | 20.9 | 0.00 | 0.00 | 0.00 | 31 | 1011.5 |
| 20260502210341 | 19 | 295 | 9.7 | 20.9 | 0.00 | 0.00 | 0.00 | 30 | 1011.4 |
| 20260502205841 | 19 | 226 | 8.0 | 22.5 | 0.00 | 0.00 | 0.00 | 31 | 1011.6 |
| 20260502205604 | 19 | 219 | 8.0 | 22.5 | 0.00 | 0.00 | 0.00 | 31 | 1011.7 |
| 20260502204840 | 19 | 207 | 8.0 | 20.9 | 0.00 | 0.00 | 0.00 | 31 | 1011.7 |
| 20260502204339 | 19 | 306 | 8.0 | 19.3 | 0.00 | 0.00 | 0.00 | 30 | 1011.8 |
| 20260502203841 | 19 | 211 | 8.0 | 24.1 | 0.00 | 0.00 | 0.00 | 29 | 1012.0 |
| 20260502203340 | 19 | 238 | 9.7 | 24.1 | 0.00 | 0.00 | 0.00 | 30 | 1012.1 |
| 20260502202839 | 19 | 221 | 9.7 | 22.5 | 0.00 | 0.00 | 0.00 | 33 | 1012.1 |
| 20260502202341 | 19 | 259 | 9.7 | 20.9 | 0.00 | 0.00 | 0.00 | 30 | 1012.3 |
| 20260502201834 | 19 | 230 | 8.0 | 20.9 | 0.00 | 0.00 | 0.00 | 31 | 1012.4 |
| 20260502201329 | 18 | 223 | 6.4 | 16.1 | 0.00 | 0.00 | 0.00 | 33 | 1012.6 |
| 20260502200831 | 18 | 214 | 6.4 | 20.9 | 0.00 | 0.00 | 0.00 | 32 | 1012.6 |
| 20260502200551 | 19 | 186 | 6.4 | 20.9 | 0.00 | 0.00 | 0.00 | 32 | 1012.7 |
| 20260502195830 | 18 | 215 | 4.8 | 16.1 | 0.00 | 0.00 | 0.00 | 33 | 1012.8 |
| 20260502195329 | 18 | 238 | 4.8 | 14.5 | 0.00 | 0.00 | 0.00 | 34 | 1013.0 |
| 20260502195312 | 18 | 173 | 4.8 | 14.5 | 0.00 | 0.00 | 0.00 | 33 | 1013.0 |
| 20260502194554 | 17 | 217 | 4.8 | 14.5 | 0.00 | 0.00 | 0.00 | 32 | 1013.1 |
| 20260502193830 | 17 | 213 | 6.4 | 20.9 | 0.00 | 0.00 | 0.00 | 30 | 1013.3 |
| 20260502193329 | 18 | 300 | 6.4 | 20.9 | 0.00 | 0.00 | 0.00 | 32 | 1013.4 |
| 20260502192830 | 18 | 200 | 6.4 | 19.3 | 0.00 | 0.00 | 0.00 | 34 | 1013.4 |
| 20260502192550 | 18 | 180 | 8.0 | 19.3 | 0.00 | 0.00 | 0.00 | 32 | 1013.4 |
| 20260502191831 | 18 | 175 | 8.0 | 19.3 | 0.00 | 0.00 | 0.00 | 33 | 1013.6 |
| 20260502191330 | 17 | 188 | 6.4 | 14.5 | 0.00 | 0.00 | 0.00 | 33 | 1013.6 |
| 20260502190826 | 17 | 232 | 6.4 | 14.5 | 0.00 | 0.00 | 0.00 | 35 | 1013.7 |
| 20260502190326 | 17 | 254 | 8.0 | 19.3 | 0.00 | 0.00 | 0.00 | 32 | 1014.0 |
| 20260502185825 | 16 | 180 | 8.0 | 19.3 | 0.00 | 0.00 | 0.00 | 34 | 1014.1 |
| 20260502185327 | 17 | 299 | 6.4 | 19.3 | 0.00 | 0.00 | 0.00 | 32 | 1014.2 |
| 20260502184827 | 17 | 0 | 6.4 | 19.3 | 0.00 | 0.00 | 0.00 | 33 | 1014.2 |
| 20260502184326 | 17 | 227 | 8.0 | 20.9 | 0.00 | 0.00 | 0.00 | 34 | 1014.4 |
| 20260502183825 | 17 | 257 | 9.7 | 29.0 | 0.00 | 0.00 | 0.00 | 33 | 1014.5 |
| 20260502183327 | 16 | 207 | 9.7 | 29.0 | 0.00 | 0.00 | 0.00 | 35 | 1014.5 |
| 20260502182826 | 17 | 259 | 8.0 | 20.9 | 0.00 | 0.00 | 0.00 | 34 | 1014.7 |
| 20260502182327 | 16 | 231 | 6.4 | 19.3 | 0.00 | 0.00 | 0.00 | 35 | 1014.7 |
| 20260502181825 | 16 | 193 | 6.4 | 19.3 | 0.00 | 0.00 | 0.00 | 35 | 1014.8 |
| 20260502181323 | 17 | 192 | 8.0 | 20.9 | 0.00 | 0.00 | 0.00 | 35 | 1014.9 |
| 20260502180824 | 16 | 259 | 6.4 | 20.9 | 0.00 | 0.00 | 0.00 | 35 | 1014.9 |
| 20260502180324 | 16 | 266 | 6.4 | 12.9 | 0.00 | 0.00 | 0.00 | 33 | 1014.9 |
| 20260502170319 | 15 | 266 | 6.4 | 14.5 | 0.00 | 0.00 | 0.00 | 36 | 1016.0 |
| 20260502164320 | 15 | 299 | 6.4 | 17.7 | 0.00 | 0.00 | 0.00 | 36 | 1016.2 |
| 20260502163821 | 15 | 217 | 6.4 | 17.7 | 0.00 | 0.00 | 0.00 | 36 | 1016.3 |
| 20260502163320 | 14 | 194 | 6.4 | 14.5 | 0.00 | 0.00 | 0.00 | 40 | 1016.3 |
| 20260502162820 | 13 | 261 | 4.8 | 12.9 | 0.00 | 0.00 | 0.00 | 36 | 1016.4 |
| 20260502162319 | 14 | 281 | 6.4 | 12.9 | 0.00 | 0.00 | 0.00 | 36 | 1016.5 |
| 20260502161820 | 14 | 312 | 4.8 | 12.9 | 0.00 | 0.00 | 0.00 | 36 | 1016.5 |
| 20260502161321 | 14 | 198 | 4.8 | 12.9 | 0.00 | 0.00 | 0.00 | 36 | 1016.6 |
| 20260502160820 | 13 | 291 | 6.4 | 14.5 | 0.00 | 0.00 | 0.00 | 35 | 1016.6 |
| 20260502160541 | 13 | 342 | 8.0 | 17.7 | 0.00 | 0.00 | 0.00 | 36 | 1016.7 |
| 20260502151821 | 12 | 338 | 4.8 | 16.1 | 0.00 | 0.00 | 0.00 | 38 | 1017.0 |
| 20260502151319 | 12 | 303 | 6.4 | 17.7 | 0.00 | 0.00 | 0.00 | 39 | 1017.1 |
| 20260502150820 | 12 | 277 | 6.4 | 17.7 | 0.00 | 0.00 | 0.00 | 38 | 1017.1 |
| 20260502150808 | 12 | 254 | 6.4 | 16.1 | 0.00 | 0.00 | 0.00 | 40 | 1017.1 |
| 20260502130256 | 5 | 211 | 3.2 | 6.4 | 0.00 | 0.00 | 0.00 | 68 | 1017.7 |
| 20260502123755 | 3 | 252 | 1.6 | 6.4 | 0.00 | 0.00 | 0.00 | 72 | 1017.7 |
| 20260502123255 | 3 | 253 | 1.6 | 6.4 | 0.00 | 0.00 | 0.00 | 73 | 1017.7 |
| 20260502122757 | 3 | 252 | 1.6 | 3.2 | 0.00 | 0.00 | 0.00 | 74 | 1017.7 |
| 20260502122511 | 3 | 252 | 1.6 | 4.8 | 0.00 | 0.00 | 0.00 | 75 | 1017.6 |
| 20260502121754 | 3 | 251 | 3.2 | 6.4 | 0.00 | 0.00 | 0.00 | 75 | 1017.6 |
| 20260502121248 | 2 | 250 | 1.6 | 6.4 | 0.00 | 0.00 | 0.00 | 76 | 1017.7 |
| 20260502120749 | 2 | 219 | 1.6 | 6.4 | 0.00 | 0.00 | 0.00 | 76 | 1017.6 |
| 20260502120247 | 2 | 219 | 3.2 | 6.4 | 0.00 | 0.00 | 0.00 | 76 | 1017.7 |
| 20260502115749 | 2 | 217 | 1.6 | 4.8 | 0.00 | 0.00 | 0.00 | 75 | 1017.7 |
| 20260502115301 | 2 | 217 | 1.6 | 6.4 | 0.00 | 0.00 | 0.00 | 75 | 1017.7 |
| 20260502114747 | 2 | 216 | 3.2 | 6.4 | 0.00 | 0.00 | 0.00 | 74 | 1017.7 |
| 20260502114247 | 2 | 212 | 3.2 | 6.4 | 0.00 | 0.00 | 0.00 | 74 | 1017.6 |
| 20260502113247 | 2 | 218 | 1.6 | 4.8 | 0.00 | 0.00 | 0.00 | 74 | 1017.6 |
| 20260502113010 | 2 | 217 | 1.6 | 4.8 | 0.00 | 0.00 | 0.00 | 73 | 1017.4 |
| 20260502112245 | 2 | 221 | 1.6 | 4.8 | 0.00 | 0.00 | 0.00 | 73 | 1017.4 |
| 20260502111746 | 2 | 220 | 1.6 | 3.2 | 0.00 | 0.00 | 0.00 | 73 | 1017.4 |
| 20260502111247 | 2 | 220 | 0.0 | 3.2 | 0.00 | 0.00 | 0.00 | 73 | 1017.4 |
| 20260502110746 | 2 | 220 | 0.0 | 1.6 | 0.00 | 0.00 | 0.00 | 73 | 1017.3 |
| 20260502110243 | 2 | 220 | 0.0 | 3.2 | 0.00 | 0.00 | 0.00 | 72 | 1017.4 |
| 20260502105742 | 2 | 220 | 0.0 | 3.2 | 0.00 | 0.00 | 0.00 | 72 | 1017.3 |
| 20260502105236 | 2 | 220 | 0.0 | 0.0 | 0.00 | 0.00 | 0.00 | 72 | 1017.3 |
| 20260502104951 | 2 | 220 | 0.0 | 0.0 | 0.00 | 0.00 | 0.00 | 72 | 1017.3 |
| 20260502104232 | 2 | 220 | 0.0 | 0.0 | 0.00 | 0.00 | 0.00 | 71 | 1017.3 |
| 20260502103730 | 2 | 220 | 0.0 | 0.0 | 0.00 | 0.00 | 0.00 | 71 | 1017.3 |
| 20260502103232 | 2 | 220 | 0.0 | 0.0 | 0.00 | 0.00 | 0.00 | 71 | 1017.3 |
| 20260502102732 | 2 | 220 | 0.0 | 0.0 | 0.00 | 0.00 | 0.00 | 70 | 1017.3 |
| 20260502102445 | 2 | 220 | 0.0 | 0.0 | 0.00 | 0.00 | 0.00 | 70 | 1017.3 |
| 20260502102332 | 2 | 220 | 0.0 | 0.0 | 0.00 | 0.00 | 0.00 | 70 | 1017.3 |
| 20260502101231 | 2 | 220 | 0.0 | 0.0 | 0.00 | 0.00 | 0.00 | 69 | 1017.3 |
| 20260502100731 | 2 | 220 | 0.0 | 0.0 | 0.00 | 0.00 | 0.00 | 69 | 1017.3 |
| 20260502100455 | 2 | 220 | 0.0 | 0.0 | 0.00 | 0.00 | 0.00 | 69 | 1017.3 |
| 20260502100225 | 3 | 220 | 0.0 | 0.0 | 0.00 | 0.00 | 0.00 | 69 | 1017.3 |
| 20260502091448 | 3 | 219 | 0.0 | 0.0 | 0.00 | 0.00 | 0.00 | 69 | 1017.1 |
| 20260502090721 | 3 | 219 | 0.0 | 0.0 | 0.00 | 0.00 | 0.00 | 69 | 1017.1 |
| 20260502090221 | 3 | 219 | 0.0 | 0.0 | 0.00 | 0.00 | 0.00 | 69 | 1017.0 |
| 20260502071207 | 3 | 253 | 0.0 | 0.0 | 0.00 | 0.00 | 0.00 | 64 | 1017.4 |
| 20260502070704 | 3 | 253 | 0.0 | 0.0 | 0.00 | 0.00 | 0.00 | 65 | 1017.4 |
| 20260502070202 | 3 | 253 | 0.0 | 0.0 | 0.00 | 0.00 | 0.00 | 65 | 1017.4 |
| 20260502065701 | 3 | 253 | 0.0 | 1.6 | 0.00 | 0.00 | 0.00 | 65 | 1017.6 |
| 20260502065158 | 3 | 253 | 0.0 | 1.6 | 0.00 | 0.00 | 0.00 | 65 | 1017.6 |
| 20260502064924 | 3 | 253 | 0.0 | 1.6 | 0.00 | 0.00 | 0.00 | 65 | 1017.6 |
| 20260502064157 | 4 | 253 | 0.0 | 0.0 | 0.00 | 0.00 | 0.00 | 64 | 1017.7 |
| 20260502063656 | 4 | 253 | 0.0 | 0.0 | 0.00 | 0.00 | 0.00 | 63 | 1017.7 |
| 20260502063154 | 4 | 253 | 0.0 | 0.0 | 0.00 | 0.00 | 0.00 | 63 | 1017.7 |
| 20260502062653 | 4 | 253 | 0.0 | 0.0 | 0.00 | 0.00 | 0.00 | 63 | 1017.7 |
| 20260502062154 | 4 | 253 | 0.0 | 0.0 | 0.00 | 0.00 | 0.00 | 63 | 1017.7 |
| 20260502061652 | 4 | 253 | 0.0 | 0.0 | 0.00 | 0.00 | 0.00 | 63 | 1017.7 |
| 20260502061150 | 4 | 253 | 0.0 | 0.0 | 0.00 | 0.00 | 0.00 | 63 | 1017.7 |
| 20260502060650 | 4 | 253 | 0.0 | 1.6 | 0.00 | 0.00 | 0.00 | 62 | 1017.7 |
| 20260502060151 | 4 | 253 | 0.0 | 1.6 | 0.00 | 0.00 | 0.00 | 62 | 1017.7 |
| 20260502055649 | 4 | 253 | 0.0 | 3.2 | 0.00 | 0.00 | 0.00 | 62 | 1017.7 |
| 20260502055149 | 4 | 253 | 0.0 | 3.2 | 0.00 | 0.00 | 0.00 | 61 | 1017.7 |
| 20260502054908 | 4 | 253 | 0.0 | 3.2 | 0.00 | 0.00 | 0.00 | 62 | 1017.7 |
| 20260502054409 | 4 | 254 | 0.0 | 4.8 | 0.00 | 0.00 | 0.00 | 61 | 1017.7 |
| 20260502053649 | 5 | 254 | 0.0 | 4.8 | 0.00 | 0.00 | 0.00 | 60 | 1017.7 |
| 20260502053149 | 5 | 254 | 0.0 | 1.6 | 0.00 | 0.00 | 0.00 | 60 | 1017.7 |
| 20260502052650 | 5 | 254 | 0.0 | 0.0 | 0.00 | 0.00 | 0.00 | 60 | 1017.7 |
| 20260502052411 | 5 | 254 | 0.0 | 3.2 | 0.00 | 0.00 | 0.00 | 59 | 1017.7 |
| 20260502051649 | 5 | 254 | 0.0 | 3.2 | 0.00 | 0.00 | 0.00 | 59 | 1017.7 |
| 20260502051149 | 5 | 259 | 0.0 | 3.2 | 0.00 | 0.00 | 0.00 | 59 | 1017.7 |
| 20260502050650 | 5 | 260 | 0.0 | 3.2 | 0.00 | 0.00 | 0.00 | 58 | 1017.7 |
| 20260502050149 | 5 | 261 | 0.0 | 0.0 | 0.00 | 0.00 | 0.00 | 58 | 1017.7 |
| 20260502045649 | 5 | 261 | 0.0 | 0.0 | 0.00 | 0.00 | 0.00 | 57 | 1017.7 |
| 20260502045150 | 5 | 261 | 0.0 | 0.0 | 0.00 | 0.00 | 0.00 | 56 | 1017.6 |
| 20260502044650 | 5 | 261 | 0.0 | 0.0 | 0.00 | 0.00 | 0.00 | 56 | 1017.6 |
| 20260502044147 | 5 | 261 | 0.0 | 0.0 | 0.00 | 0.00 | 0.00 | 56 | 1017.6 |
| 20260502043657 | 5 | 261 | 0.0 | 0.0 | 0.00 | 0.00 | 0.00 | 55 | 1017.6 |
| 20260502043142 | 5 | 261 | 0.0 | 0.0 | 0.00 | 0.00 | 0.00 | 55 | 1017.6 |
| 20260502042829 | 6 | 261 | 0.0 | 0.0 | 0.00 | 0.00 | 0.00 | 53 | 1017.6 |
| 20260502042722 | 6 | 261 | 0.0 | 0.0 | 0.00 | 0.00 | 0.00 | 55 | 1017.6 |
| 20260502042239 | 6 | 261 | 0.0 | 0.0 | 0.00 | 0.00 | 0.00 | 54 | 1017.6 |
| 20260502041358 | 6 | 261 | 0.0 | 0.0 | 0.00 | 0.00 | 0.00 | 53 | 1017.6 |
| 20260502040637 | 6 | 261 | 0.0 | 0.0 | 0.00 | 0.00 | 0.00 | 52 | 1017.6 |
| 20260502040135 | 6 | 261 | 0.0 | 0.0 | 0.00 | 0.00 | 0.00 | 52 | 1017.6 |
| 20260502040120 | 6 | 261 | 0.0 | 0.0 | 0.00 | 0.00 | 0.00 | 52 | 1017.7 |
| 20260502035611 | 6 | 261 | 0.0 | 0.0 | 0.00 | 0.00 | 0.00 | 52 | 1017.7 |
| 20260502034635 | 6 | 262 | 0.0 | 0.0 | 0.00 | 0.00 | 0.00 | 52 | 1017.7 |
| 20260502034134 | 6 | 262 | 0.0 | 0.0 | 0.00 | 0.00 | 0.00 | 50 | 1017.7 |
| 20260502033632 | 6 | 262 | 0.0 | 0.0 | 0.00 | 0.00 | 0.00 | 49 | 1017.7 |
| 20260502033352 | 6 | 262 | 0.0 | 0.0 | 0.00 | 0.00 | 0.00 | 47 | 1017.8 |
| 20260502032626 | 6 | 263 | 0.0 | 0.0 | 0.00 | 0.00 | 0.00 | 47 | 1017.8 |
| 20260502032121 | 6 | 263 | 0.0 | 0.0 | 0.00 | 0.00 | 0.00 | 47 | 1017.7 |
| 20260502031610 | 7 | 263 | 0.0 | 1.6 | 0.00 | 0.00 | 0.00 | 46 | 1017.7 |
| 20260502031333 | 7 | 262 | 0.0 | 1.6 | 0.00 | 0.00 | 0.00 | 46 | 1017.7 |
| 20260502030603 | 7 | 263 | 0.0 | 1.6 | 0.00 | 0.00 | 0.00 | 45 | 1017.7 |
| 20260502030109 | 7 | 263 | 0.0 | 3.2 | 0.00 | 0.00 | 0.00 | 45 | 1017.6 |
| 20260502025600 | 7 | 263 | 0.0 | 3.2 | 0.00 | 0.00 | 0.00 | 44 | 1017.6 |
| 20260502025328 | 7 | 263 | 0.0 | 1.6 | 0.00 | 0.00 | 0.00 | 43 | 1017.6 |
| 20260502024601 | 7 | 263 | 0.0 | 1.6 | 0.00 | 0.00 | 0.00 | 43 | 1017.7 |
| 20260502024326 | 7 | 263 | 0.0 | 1.6 | 0.00 | 0.00 | 0.00 | 42 | 1017.6 |
| 20260502023559 | 7 | 263 | 0.0 | 3.2 | 0.00 | 0.00 | 0.00 | 42 | 1017.6 |
| 20260502023100 | 7 | 265 | 0.0 | 3.2 | 0.00 | 0.00 | 0.00 | 42 | 1017.6 |
| 20260502022822 | 8 | 266 | 0.0 | 3.2 | 0.00 | 0.00 | 0.00 | 42 | 1017.6 |
| 20260502022058 | 8 | 266 | 0.0 | 3.2 | 0.00 | 0.00 | 0.00 | 41 | 1017.6 |
| 20260502021600 | 8 | 331 | 0.0 | 0.0 | 0.00 | 0.00 | 0.00 | 41 | 1017.6 |
| 20260502021058 | 8 | 331 | 0.0 | 0.0 | 0.00 | 0.00 | 0.00 | 40 | 1017.6 |
| 20260502020558 | 8 | 331 | 0.0 | 0.0 | 0.00 | 0.00 | 0.00 | 39 | 1017.4 |
| 20260502020334 | 8 | 331 | 0.0 | 0.0 | 0.00 | 0.00 | 0.00 | 39 | 1017.3 |
| 20260502015550 | 9 | 331 | 0.0 | 0.0 | 0.00 | 0.00 | 0.00 | 37 | 1017.3 |
| 20260502015537 | 9 | 331 | 0.0 | 3.2 | 0.00 | 0.00 | 0.00 | 36 | 1017.2 |
| 20260502014551 | 9 | 331 | 0.0 | 3.2 | 0.00 | 0.00 | 0.00 | 35 | 1017.1 |
| 20260502014050 | 9 | 331 | 1.6 | 4.8 | 0.00 | 0.00 | 0.00 | 35 | 1017.0 |
| 20260502013551 | 10 | 331 | 0.0 | 4.8 | 0.00 | 0.00 | 0.00 | 34 | 1016.9 |
| 20260502013050 | 10 | 342 | 0.0 | 0.0 | 0.00 | 0.00 | 0.00 | 34 | 1016.9 |
| 20260502012550 | 10 | 342 | 0.0 | 1.6 | 0.00 | 0.00 | 0.00 | 33 | 1016.9 |
| 20260502012050 | 10 | 342 | 1.6 | 6.4 | 0.00 | 0.00 | 0.00 | 32 | 1016.9 |
| 20260502011551 | 10 | 344 | 1.6 | 6.4 | 0.00 | 0.00 | 0.00 | 32 | 1016.9 |
| 20260502011050 | 10 | 340 | 3.2 | 8.0 | 0.00 | 0.00 | 0.00 | 31 | 1016.9 |
| 20260502011036 | 10 | 335 | 1.6 | 8.0 | 0.00 | 0.00 | 0.00 | 32 | 1016.9 |
| 20260502010104 | 10 | 338 | 1.6 | 6.4 | 0.00 | 0.00 | 0.00 | 32 | 1016.9 |